STARLINK-11363, 62012

Orbit data source: Space-Track

STARLINK-11363, 62012 is a payload satellite owned by SpaceX/Seattle (US) in LEO that was launched on Mon, 18 Nov 2024 UTC via an FALCON 9 launch vehicle from the Air Force Western Test Range (AFWTR). Payload-class satellites include a variety of spacecraft equipped with specific instruments for various scientific and technological missions. These include communications satellites like Starlink; space stations such as the ISS; scientific satellites like the Hubble; Earth observation satellites from companies like Planet Labs, Umbra, and HawkEye 360; GPS; miniature CubeSats for education and research; and military/defense satellites.

Loading next visibility...
Identifier
62012, 2024-213E
Orbit
LEO
Last TLE update
15 hours ago
Origin
Manufacturer
SpaceX/Seattle
Mission
Operational Commercial Communications
Bus & Motor
STARLINK V2M, Unknown motor
Mass
730 kg wet, ~700 kg dry
Launch date (UTC)
2024-11-18 (7 months ago)
Launch vehicle
FALCON 9
Launch site
Air Force Western Test Range (AFWTR)
Object type
Payload
Rocket body
Debris
Shape & HBR
Box + 2 Pan, 29 m
Radar Cross Section
36.964 m², Large (>1 m²)

Expand to show TLE details & history

TLE from 15 hours ago
0 STARLINK-11363
1 62012U 24213E   25181.54436877  .00110221  00000-0  90077-3 0  9997
2 62012  53.1568 204.1923 0001095  85.1522 274.9621 15.69758667 36325
Epoch: 2025-06-30T13:03Z
TLE epoch observation values (Epoch: 2025-06-30T13:03:53.461Z)
Latitude
-0.00003°
Longitude
89.36688°
Altitude
360.438 km
Speed
7.694 km/s
True Right ascension
13h 36m 46s
True Declination
0° 00' 00"
Sunlit
Object was in daylight at epoch
Visualization orbit readout
Latitude
-48.19105°
Longitude
-37.26109°
Altitude
376.399 km
Speed
7.683 km/s
Apparent Right ascension
04h 17m 47s
Apparent Declination
-44° 40' 57"
Sunlit
Object is in daylight
Visualization observer readout
Local Sidereal Time
15:29:32
Azimuth
237.911° WSW
Elevation
-79.899°
Doppler factor
1
Orbital elements
Apogee altitude
360.587 km
Perigee altitude
359.111 km
Semi-major axis
6,737.986 km
Eccentricity
0.00011
Inclination
53.1568°
RAAN
204.1923°
Arg. of periapsis
85.1522°
True anomaly
Unknown
Mean anomaly
274.9621°
Eccentric anomaly
Unknown
Mean motion
3.92417 °/min
Orbital period
91.74 mins
BSTAR
0.00090077
Loading maneuver chart data...
Loading SW <> Apogee altitude chart data...
Loading historical data...
Loading historical data...
Loading historical data...
Loading historical data...
Loading historical data...
Loading historical data...
Loading historical data...

STARLINK-11363 Visibility forecast

Observer location: undefined°, undefined°

Span
Click to sort rows by Start time (UTC) header in descending order
Start Az.
Max El. time (UTC)
Max El. Az.
Max El.
End time (UTC)
End Az.
5 mins2025-07-01 04:32:10.094Z240.584° WSW2025-07-01 04:35:10.094Z10.968° NNE38.038°2025-07-01 04:37:10.094Z42.811° NE
4 mins2025-07-01 10:58:10.094Z318.232° NNW2025-07-01 10:59:10.094Z353.413° N43.442°2025-07-01 11:02:10.094Z126.103° SE
|